Location: Famechon
(49.7599°N, 2.0615°E)
Time: 21:04:19
(UTC+00:00)

Cosmos 1741 Rocket - Pass Details

Date: 27 March 2025
Orbit: 758 x 778 km, 74.0° (Epoch: 28 April)

Event Time Altitude Azimuth Distance (km) Brightness Sun altitude
Rises 22:45:52 0° 344° (NNW) 3,234 8.3 -35.1°
Reaches altitude 10° 22:50:31 10° 22° (NNE) 2,308 7.0 -35.3°
Maximum altitude 22:51:45 11° 35° (NE) 2,256 6.7 -35.4°
Enters shadow 22:52:42 10° 46° (NE) 2,287 6.7 -35.5°
